NEODyS-2

Near Earth Objects - Dynamic Site
NEODyS ∴ Observatories ∴ Site 691 ∴ Obs & residuals
Contact »
691  ▹ 
OBSERVATIONS AND RESIDUALS

691-Steward Observatory, Kitt Peak-Spacewatch

Detections | Residuals | Detections & Residuals

[1-200] [201-400] [401-600] [601-800] [801-1000] [1001-1200] [1201-1400] [1401-1600] [1601-1800] [1801-2000] [2001-2200] [2201-2400] [2401-2600] [2601-2800] [2801-3000] [3001-3200] [3201-3400] [3401-3600] [3601-3800] [3801-4000] [4001-4200] [4201-4400] [4401-4600] [4601-4800] [4801-5000] [5001-5200] [5201-5400] [5401-5600] [5601-5800] [5801-6000] [6001-6200] [6201-6400] [6401-6600] [6601-6800] [6801-7000] [7001-7200] [7201-7400] [7401-7600] [7601-7800] [7801-8000] [8001-8200] [8201-8400] [8401-8600] [8601-8800] [8801-9000] [9001-9200] [9201-9400] [9401-9600] [9601-9800] [9801-10000] [10001-10200] [10201-10400] [10401-10600] [10601-10800] [10801-11000] [11001-11200] [11201-11400] [11401-11600] [11601-11800] [11801-12000] [12001-12200] [12201-12400] [12401-12600] [12601-12800] [12801-13000] [13001-13200] [13201-13400] [13401-13600] [13601-13800] [13801-14000] [14001-14200] [14201-14400] [14401-14600] [14601-14800] [14801-15000] [15001-15200] [15201-15400] [15401-15600] [15601-15800] [15801-16000] [16001-16200] [16201-16400] [16401-16600] [16601-16800] [16801-17000] [17001-17200] [17201-17400] [17401-17600] [17601-17800] [17801-18000] [18001-18200] [18201-18400] [18401-18600] [18601-18800] [18801-19000] [19001-19200] [19201-19400] [19401-19600] [19601-19800] [19801-20000] [20001-20200] [20201-20400] [20401-20600] [20601-20800] [20801-21000] [21001-21200] [21201-21400] [21401-21600] [21601-21800] [21801-22000] [22001-22200] [22201-22400] [22401-22600] [22601-22800] [22801-23000] [23001-23200] [23201-23400] [23401-23600] [23601-23800] [23801-24000] [24001-24200] [24201-24400] [24401-24600] [24601-24800] [24801-25000] [25001-25200] [25201-25400] [25401-25600] [25601-25800] [25801-26000] [26001-26200] [26201-26400] [26401-26600] [26601-26800] [26801-27000] [27001-27200] [27201-27400] [27401-27600] [27601-27800] [27801-28000] [28001-28200] [28201-28400] [28401-28600] [28601-28800] [28801-29000] [29001-29200] [29201-29400] [29401-29600] [29601-29800] [29801-30000] [30001-30200] [30201-30400] [30401-30600] [30601-30800] [30801-31000] [31001-31200] [31201-31400] [31401-31600] [31601-31800] [31801-32000] [32001-32200] [32201-32400] [32401-32600] [32601-32800] [32801-33000] [33001-33200] [33201-33400] [33401-33600] [33601-33800] [33801-34000] [34001-34200] [34201-34400] [34401-34600] [34601-34800] [34801-35000] [35001-35200] [35201-35400] [35401-35600] [35601-35800] [35801-36000] [36001-36200] [36201-36400] [36401-36600] [36601-36800] [36801-37000] [37001-37200] [37201-37400] [37401-37600] [37601-37800] [37801-38000] [38001-38200] [38201-38400] [38401-38600] [38601-38800] [38801-39000] [39001-39200] [39201-39400] [39401-39600] [39601-39800] [39801-40000] [40001-40200] [40201-40400] [40401-40600] [40601-40800] [40801-41000] [41001-41200] [41201-41400] [41401-41600] [41601-41800] [41801-42000] [42001-42200] [42201-42400] [42401-42600] [42601-42800] [42801-43000] [43001-43200] [43201-43400] [43401-43600] [43601-43800] [43801-44000] [44001-44200] [44201-44400] [44401-44600] [44601-44800] [44801-45000] [45001-45200] [45201-45400] [45401-45600] [45601-45800] [45801-46000] [46001-46200] [46201-46400] [46401-46600] [46601-46800] [46801-47000] [47001-47200] [47201-47400] [47401-47600] [47601-47800] [47801-48000] [48001-48200] [48201-48400] [48401-48600] [48601-48800] [48801-49000] [49001-49200] [49201-49400] [49401-49600] [49601-49800] [49801-50000] [50001-50200] [50201-50388]

Designation T Tech N Date Right Ascension Declination Apparent Magnitude Star Catalog Site code χ Used A Used M
yr-mo-day precision hr:min:sec precision rms F bias residual deg min sec precision rms F bias residual mag/col rms residual
2000KW43 O C H 2021-06-02.27870 1.000E-05 15:35:07.300 1.500E-01 0.500 F 0.213 0.487 +15° 49' 05.90" 1.000E-01 0.500 F 0.336 0.136 18.8 R 0.70 0.04 o 691 1.01 Yes Yes
2014QZ432 O C H 2021-06-02.28082 1.000E-05 15:16:09.260 1.500E-01 0.500 F 0.140 -0.464 -13° 20' 08.70" 1.000E-01 0.500 F 0.152 0.070 18.8 R 0.70 -0.12 o 691 0.94 Yes Yes
2021JR6 O C H 2021-06-02.28253 1.000E-05 15:18:47.510 1.500E-01 0.500 F 0.108 0.342 -04° 02' 42.30" 1.000E-01 0.500 F 0.233 -1.088 18.7 R 0.70 -0.62 o 691 2.30 Yes Yes
2000KW43 O C H 2021-06-02.28653 1.000E-05 15:35:06.120 1.500E-01 0.500 F 0.213 0.214 +15° 48' 06.90" 1.000E-01 0.500 F 0.336 0.019 18.9 R 0.70 0.14 o 691 0.43 Yes Yes
2014QZ432 O C H 2021-06-02.28867 1.000E-05 15:16:09.070 1.500E-01 0.500 F 0.140 -0.054 -13° 20' 06.00" 1.000E-01 0.500 F 0.152 0.110 18.9 R 0.70 -0.02 o 691 0.25 Yes Yes
2021JR6 O C H 2021-06-02.29037 1.000E-05 15:18:53.530 1.500E-01 0.500 F 0.108 0.271 -04° 02' 01.80" 1.000E-01 0.500 F 0.233 0.028 19.4 R 0.70 0.08 o 691 0.55 Yes Yes
2000KW43 O C H 2021-06-02.29440 1.000E-05 15:35:04.950 1.500E-01 0.500 F 0.213 0.151 +15° 47' 07.70" 1.000E-01 0.500 F 0.336 0.006 19.1 R 0.70 0.34 o 691 0.30 Yes Yes
2014QZ432 O C H 2021-06-02.29652 1.000E-05 15:16:08.850 1.500E-01 0.500 F 0.140 -0.094 -13° 20' 03.50" 1.000E-01 0.500 F 0.152 -0.059 18.9 R 0.70 -0.02 o 691 0.22 Yes Yes
2021JR6 O C H 2021-06-02.29822 1.000E-05 15:18:59.580 1.500E-01 0.500 F 0.117 0.430 -04° 01' 22.60" 1.000E-01 0.500 F 0.178 -0.181 19.0 R 0.70 -0.32 o 691 0.94 Yes Yes
2021FQ3 O C H 2021-06-02.34711 1.000E-05 17:25:20.700 1.500E-01 0.500 F 0.026 -0.266 +27° 03' 23.50" 1.000E-01 0.500 F 0.272 0.043 20.9 R 0.70 0.45 o 691 0.54 Yes Yes
2021FQ3 O C H 2021-06-02.35419 1.000E-05 17:25:20.640 1.500E-01 0.500 F 0.026 -0.075 +27° 03' 00.40" 1.000E-01 0.500 F 0.272 0.486 o 691 0.99 Yes No
2021FQ3 O C H 2021-06-02.36135 1.000E-05 17:25:20.580 1.500E-01 0.500 F 0.026 0.122 +27° 02' 36.20" 1.000E-01 0.500 F 0.272 0.128 20.5 R 0.70 0.05 o 691 0.36 Yes Yes
2013VA14 O C H 2021-06-02.37611 1.000E-05 21:20:13.950 1.500E-01 0.500 F -0.059 -0.054 -00° 09' 07.80" 1.000E-01 0.500 F 0.261 0.402 20.4 R 0.70 -0.05 o 691 0.82 Yes Yes
2013VA14 O C H 2021-06-02.38236 1.000E-05 21:20:15.120 1.500E-01 0.500 F -0.059 0.414 -00° 08' 44.30" 1.000E-01 0.500 F 0.261 0.757 20.5 R 0.70 0.05 o 691 1.76 Yes Yes
2008JG O C H 2021-06-02.39555 1.000E-05 19:22:13.420 1.500E-01 0.500 F 0.136 0.150 +26° 20' 44.10" 1.000E-01 0.500 F 0.294 -0.223 o 691 0.56 Yes No
2008JG O C H 2021-06-02.40638 1.000E-05 19:22:15.240 1.500E-01 0.500 F 0.136 -0.828 +26° 21' 30.80" 1.000E-01 0.500 F 0.294 0.152 o 691 1.71 Yes No
2008JG O C H 2021-06-02.41725 1.000E-05 19:22:17.210 1.500E-01 0.500 F 0.136 0.118 +26° 22' 17.00" 1.000E-01 0.500 F 0.294 -0.073 o 691 0.29 Yes No
2021JR8 O C K 2021-06-03.18449 1.000E-05 13:11:34.140 1.500E-01 0.500 F 0.204 -0.700 -05° 18' 21.00" 1.000E-01 0.500 F 0.095 -0.619 20.6 R 0.70 0.57 o 691 1.90 Yes Yes
2021JR8 O C K 2021-06-03.19269 1.000E-05 13:11:37.600 1.500E-01 0.500 F 0.204 -1.295 -05° 17' 56.40" 1.000E-01 0.500 F 0.095 0.406 20.4 R 0.70 0.37 o 691 2.74 Yes Yes
2021JR8 O C K 2021-06-03.20088 1.000E-05 13:11:41.160 1.500E-01 0.500 F 0.204 -0.361 -05° 17' 32.70" 1.000E-01 0.500 F 0.095 0.550 20.3 R 0.70 0.27 o 691 1.32 Yes Yes
2021GP7 O C K 2021-06-03.20800 1.000E-05 13:46:44.570 1.500E-01 0.500 F 0.515 -0.100 -25° 58' 30.00" 1.000E-01 0.500 F 0.305 0.472 o 691 1.01 Yes No
2021GP7 O C K 2021-06-03.21758 1.000E-05 13:46:45.590 1.500E-01 0.500 F 0.395 0.074 -25° 59' 16.50" 1.000E-01 0.500 F 0.352 -0.030 o 691 0.15 Yes No
2021GP7 O C K 2021-06-03.22714 1.000E-05 13:46:46.620 1.500E-01 0.500 F 0.395 0.249 -26° 00' 01.30" 1.000E-01 0.500 F 0.352 1.019 o 691 2.19 Yes No
2014QZ432 O C H 2021-06-03.25351 1.000E-05 15:15:50.820 1.500E-01 0.500 F 0.140 0.052 -13° 14' 50.40" 1.000E-01 0.500 F 0.152 0.159 18.9 R 0.70 -0.03 o 691 0.33 Yes Yes
2014QZ432 O C H 2021-06-03.27367 1.000E-05 15:15:50.280 1.500E-01 0.500 F 0.140 -0.145 -13° 14' 44.20" 1.000E-01 0.500 F 0.152 -0.178 18.9 R 0.70 -0.03 o 691 0.46 Yes Yes
2014QZ432 O C H 2021-06-03.29385 1.000E-05 15:15:49.750 1.500E-01 0.500 F 0.140 -0.249 -13° 14' 37.50" 1.000E-01 0.500 F 0.152 -0.084 19.0 R 0.70 0.07 o 691 0.53 Yes Yes
2021LB O C K 2021-06-03.29875 1.000E-05 16:10:42.900 1.500E-01 0.500 F 0.139 -0.450 +27° 43' 49.30" 1.000E-01 0.500 F 0.234 0.501 20.3 R 0.70 -0.19 o 691 1.39 Yes Yes
2015NJ24 O C K 2021-06-03.30542 1.000E-05 16:31:26.350 1.500E-01 0.500 F 0.093 0.158 -00° 01' 34.50" 1.000E-01 0.500 F 0.216 -0.142 o 691 0.43 Yes No
2015NJ24 O C K 2021-06-03.31632 1.000E-05 16:31:24.600 1.500E-01 0.500 F 0.093 0.181 -00° 01' 42.20" 1.000E-01 0.500 F 0.216 0.525 o 691 1.11 Yes No
2021LB O C K 2021-06-03.32063 1.000E-05 16:10:38.820 1.500E-01 0.500 F 0.139 0.118 +27° 48' 57.60" 1.000E-01 0.500 F 0.234 -0.365 21.1 R 0.70 0.61 o 691 0.79 Yes Yes
2015NJ24 O C K 2021-06-03.32710 1.000E-05 16:31:22.850 1.500E-01 0.500 F 0.093 -0.100 -00° 01' 50.50" 1.000E-01 0.500 F 0.216 0.503 o 691 1.03 Yes No
2021LF O C H 2021-06-03.33062 1.000E-05 16:58:27.980 1.500E-01 0.500 F 0.028 -0.220 +18° 43' 27.10" 1.000E-01 0.500 F 0.318 0.185 20.4 R 0.70 0.48 o 691 0.58 Yes Yes
2021FQ3 O C H 2021-06-03.33208 1.000E-05 17:25:24.000 1.500E-01 0.500 F 0.041 -0.183 +26° 08' 17.90" 1.000E-01 0.500 F 0.303 0.465 20.2 R 0.70 -0.23 o 691 1.01 Yes Yes
2021LF O C H 2021-06-03.33573 1.000E-05 16:58:25.190 1.500E-01 0.500 F 0.028 0.447 +18° 42' 53.40" 1.000E-01 0.500 F 0.318 0.012 19.8 R 0.70 -0.12 o 691 0.90 Yes Yes
2021FQ3 O C H 2021-06-03.33701 1.000E-05 17:25:23.970 1.500E-01 0.500 F 0.041 0.190 +26° 08' 01.00" 1.000E-01 0.500 F 0.303 0.288 21.1 R 0.70 0.67 o 691 0.70 Yes Yes
2021LF O C H 2021-06-03.34071 1.000E-05 16:58:22.450 1.500E-01 0.500 F 0.028 0.772 +18° 42' 21.70" 1.000E-01 0.500 F 0.318 0.983 20.2 R 0.70 0.28 o 691 2.52 Yes Yes
2021FQ3 O C H 2021-06-03.34200 1.000E-05 17:25:23.870 1.500E-01 0.500 F 0.041 -0.370 +26° 07' 43.90" 1.000E-01 0.500 F 0.303 0.130 20.3 R 0.70 -0.13 o 691 0.79 Yes Yes
1999XP35 O C 2021-06-03.35283 1.000E-05 20:14:35.880 1.500E-01 0.500 F -0.075 -0.089 -10° 21' 13.70" 1.000E-01 0.500 F 0.182 -0.208 20.8 V 0.70 0.15 o 691 0.45 Yes Yes
1999XP35 O C 2021-06-03.36002 1.000E-05 20:14:35.650 1.500E-01 0.500 F -0.075 0.009 -10° 21' 04.90" 1.000E-01 0.500 F 0.182 -0.204 20.9 V 0.70 0.25 o 691 0.41 Yes Yes
1999XP35 O C 2021-06-03.36721 1.000E-05 20:14:35.410 1.500E-01 0.500 F -0.075 -0.028 -10° 20' 55.70" 1.000E-01 0.500 F 0.182 0.197 20.2 V 0.70 -0.45 o 691 0.40 Yes Yes
2012BB77 O C K 2021-06-03.40459 1.000E-05 21:10:38.210 1.500E-01 0.500 F -0.042 -0.179 +15° 43' 42.70" 1.000E-01 0.500 F 0.452 0.423 21.4 R 0.70 0.67 o 691 0.92 Yes Yes
2012BB77 O C K 2021-06-03.41241 1.000E-05 21:10:39.320 1.500E-01 0.500 F -0.042 0.091 +15° 43' 53.70" 1.000E-01 0.500 F 0.452 0.109 21.1 R 0.70 0.37 o 691 0.28 Yes Yes
2012BB77 O C K 2021-06-03.42023 1.000E-05 21:10:40.400 1.500E-01 0.500 F -0.042 -0.064 +15° 44' 05.10" 1.000E-01 0.500 F 0.452 0.198 21.7 R 0.70 0.97 o 691 0.42 Yes Yes
2018DX3 O C H 2021-06-04.15806 1.000E-05 10:28:20.550 1.500E-01 0.500 F 0.173 -0.136 -03° 26' 42.70" 1.000E-01 0.500 F 0.105 -0.532 21.2 R 0.70 1.09 o 691 1.11 Yes Yes
2014KV76 O C H 2021-06-04.15985 1.000E-05 11:48:16.350 1.500E-01 0.500 F 0.210 0.399 +15° 23' 34.50" 1.000E-01 0.500 F 0.246 0.053 20.0 R 0.70 0.24 o 691 0.81 Yes Yes
2018DX3 O C H 2021-06-04.16379 1.000E-05 10:28:21.590 1.500E-01 0.500 F 0.173 0.506 -03° 26' 57.50" 1.000E-01 0.500 F 0.105 -0.067 20.7 R 0.70 0.59 o 691 1.03 Yes Yes
2014KV76 O C H 2021-06-04.16558 1.000E-05 11:48:15.840 1.500E-01 0.500 F 0.210 0.145 +15° 23' 51.70" 1.000E-01 0.500 F 0.246 -0.113 19.9 R 0.70 0.14 o 691 0.36 Yes Yes
2018DX3 O C H 2021-06-04.16952 1.000E-05 10:28:22.550 1.500E-01 0.500 F 0.173 -0.068 -03° 27' 12.80" 1.000E-01 0.500 F 0.105 -0.102 20.6 R 0.70 0.49 o 691 0.25 Yes Yes
2014KV76 O C H 2021-06-04.17133 1.000E-05 11:48:15.370 1.500E-01 0.500 F 0.210 0.472 +15° 24' 08.40" 1.000E-01 0.500 F 0.246 -0.823 20.2 R 0.70 0.44 o 691 1.91 Yes Yes
2014CS O C K 2021-06-04.17600 1.000E-05 11:29:52.800 1.500E-01 0.500 F 0.030 0.595 -12° 36' 01.50" 1.000E-01 0.500 F 0.153 -0.231 20.7 R 0.70 -0.13 o 691 1.30 Yes Yes
2021HS O C H 2021-06-04.18131 1.000E-05 11:24:14.900 1.500E-01 0.500 F 0.237 -0.111 -12° 45' 17.70" 1.000E-01 0.500 F 0.057 0.136 20.4 R 0.70 0.28 o 691 0.36 Yes Yes
2014CS O C K 2021-06-04.18542 1.000E-05 11:29:54.450 1.500E-01 0.500 F 0.030 -0.461 -12° 36' 07.80" 1.000E-01 0.500 F 0.153 1.061 o 691 2.37 Yes No
2021HS O C H 2021-06-04.19074 1.000E-05 11:24:14.660 1.500E-01 0.500 F 0.237 -0.062 -12° 45' 05.00" 1.000E-01 0.500 F 0.057 -0.032 20.4 R 0.70 0.28 o 691 0.14 Yes Yes
2014CS O C K 2021-06-04.19485 1.000E-05 11:29:56.230 1.500E-01 0.500 F 0.030 0.332 -12° 36' 16.60" 1.000E-01 0.500 F 0.153 -0.147 20.7 R 0.70 -0.13 o 691 0.73 Yes Yes
2021HS O C H 2021-06-04.20016 1.000E-05 11:24:14.440 1.500E-01 0.500 F 0.237 0.245 -12° 44' 52.10" 1.000E-01 0.500 F 0.057 0.005 20.5 R 0.70 0.38 o 691 0.49 Yes Yes
2021AD7 O C H 2021-06-04.22752 1.000E-05 12:59:40.540 1.500E-01 0.500 F 0.418 0.111 -22° 51' 04.10" 1.000E-01 0.500 F 0.218 0.369 20.6 R 0.70 0.70 o 691 0.79 Yes Yes
2021AD7 O C H 2021-06-04.23365 1.000E-05 12:59:41.620 1.500E-01 0.500 F 0.418 0.767 -22° 51' 04.90" 1.000E-01 0.500 F 0.218 -0.279 o 691 1.69 Yes No
2021AD7 O C H 2021-06-04.23969 1.000E-05 12:59:42.580 1.500E-01 0.500 F 0.418 -0.037 -22° 51' 04.50" 1.000E-01 0.500 F 0.218 0.263 20.8 R 0.70 0.90 o 691 0.54 Yes Yes
2021KY2 O C K 2021-06-04.26669 1.000E-05 15:33:27.090 1.500E-01 0.500 F 0.071 -0.366 +21° 46' 22.60" 1.000E-01 0.500 F 0.223 0.195 21.2 R 0.70 0.34 o 691 0.83 Yes Yes
2021KY2 O C K 2021-06-04.27520 1.000E-05 15:33:25.150 1.500E-01 0.500 F 0.071 -0.136 +21° 45' 06.50" 1.000E-01 0.500 F 0.223 0.187 20.6 R 0.70 -0.26 o 691 0.46 Yes Yes
2021KY2 O C K 2021-06-04.28377 1.000E-05 15:33:23.180 1.500E-01 0.500 F 0.071 -0.176 +21° 43' 49.60" 1.000E-01 0.500 F 0.223 0.060 21.2 R 0.70 0.35 o 691 0.37 Yes Yes
2021KY1 O C K 2021-06-04.29241 1.000E-05 16:17:34.620 1.500E-01 0.500 F 0.167 -0.602 -07° 05' 29.00" 1.000E-01 0.500 F 0.229 -0.076 o 691 1.23 Yes No
2021KY1 O C K 2021-06-04.30155 1.000E-05 16:17:32.630 1.500E-01 0.500 F 0.167 -0.238 -07° 05' 36.20" 1.000E-01 0.500 F 0.229 0.311 o 691 0.80 Yes No
2021KY1 O C K 2021-06-04.31069 1.000E-05 16:17:30.640 1.500E-01 0.500 F 0.167 0.123 -07° 05' 44.60" 1.000E-01 0.500 F 0.229 -0.516 o 691 1.06 Yes No
2005ML13 O C H 2021-06-04.34181 1.000E-05 18:33:19.300 1.500E-01 0.500 F -0.001 -0.397 +17° 37' 12.20" 1.000E-01 0.500 F 0.281 0.520 o 691 1.33 Yes No
2005ML13 O C H 2021-06-04.34971 1.000E-05 18:33:19.460 1.500E-01 0.500 F -0.001 -0.539 +17° 37' 33.30" 1.000E-01 0.500 F 0.281 0.430 o 691 1.40 Yes No
2021JM6 O C K 2021-06-05.18561 1.000E-05 12:26:16.220 1.500E-01 0.500 F 0.150 -0.233 +10° 51' 26.90" 1.000E-01 0.500 F 0.334 0.162 21.1 R 0.70 0.79 o 691 0.57 Yes Yes
2021JM6 O C K 2021-06-05.18973 1.000E-05 12:26:12.630 1.500E-01 0.500 F 0.150 -0.849 +10° 51' 51.70" 1.000E-01 0.500 F 0.334 0.559 20.0 R 0.70 -0.31 o 691 2.04 Yes Yes
2021JM6 O C K 2021-06-05.19385 1.000E-05 12:26:09.120 1.500E-01 0.500 F 0.150 -0.294 +10° 52' 15.10" 1.000E-01 0.500 F 0.334 -0.440 o 691 1.06 Yes No
2021GY8 O C K 2021-06-05.20194 1.000E-05 14:25:20.450 1.500E-01 0.500 F 0.276 -0.071 -16° 11' 07.50" 1.000E-01 0.500 F 0.114 -0.004 21.7 R 0.70 0.21 o 691 0.14 Yes Yes
2021GY8 O C K 2021-06-05.20953 1.000E-05 14:25:21.120 1.500E-01 0.500 F 0.276 -0.274 -16° 11' 16.00" 1.000E-01 0.500 F 0.114 -0.196 22.4 R 0.70 0.91 o 691 0.69 Yes Yes
2021GY8 O C K 2021-06-05.21713 1.000E-05 14:25:21.810 1.500E-01 0.500 F 0.276 -0.205 -16° 11' 23.90" 1.000E-01 0.500 F 0.114 0.205 o 691 0.59 Yes No
2021LQ O C K 2021-06-05.22838 1.000E-05 15:21:52.990 1.500E-01 0.500 F 0.058 -0.046 -21° 32' 55.60" 1.000E-01 0.500 F -0.042 0.551 20.0 R 0.70 -0.20 o 691 1.11 Yes Yes
2021LQ O C K 2021-06-05.23282 1.000E-05 15:21:53.430 1.500E-01 0.500 F 0.058 -1.230 -21° 33' 25.20" 1.000E-01 0.500 F -0.042 -1.035 19.6 R 0.70 -0.60 o 691 3.20 No Yes
2021LQ O C K 2021-06-05.23726 1.000E-05 15:21:54.050 1.500E-01 0.500 F 0.058 0.110 -21° 33' 52.30" 1.000E-01 0.500 F -0.042 -0.180 20.0 R 0.70 -0.20 o 691 0.42 Yes Yes
2021KY2 O C K 2021-06-05.24435 1.000E-05 15:30:35.860 1.500E-01 0.500 F 0.255 -0.403 +19° 18' 43.50" 1.000E-01 0.500 F 0.269 -0.415 o 691 1.17 Yes No
2021KY2 O C K 2021-06-05.25081 1.000E-05 15:30:34.450 1.500E-01 0.500 F 0.255 0.287 +19° 17' 44.30" 1.000E-01 0.500 F 0.269 -0.228 o 691 0.75 Yes No
2021KY2 O C K 2021-06-05.25726 1.000E-05 15:30:32.970 1.500E-01 0.500 F 0.255 -0.047 +19° 16' 44.50" 1.000E-01 0.500 F 0.269 -0.657 o 691 1.33 Yes No
2021KY1 O C K 2021-06-05.27568 1.000E-05 16:14:14.510 1.500E-01 0.500 F 0.167 0.043 -07° 19' 42.50" 1.000E-01 0.500 F 0.229 -0.050 21.2 R 0.70 0.61 o 691 0.13 Yes Yes
2021KY1 O C K 2021-06-05.28050 1.000E-05 16:14:13.420 1.500E-01 0.500 F 0.167 0.325 -07° 19' 46.60" 1.000E-01 0.500 F 0.229 0.209 20.5 R 0.70 -0.08 o 691 0.78 Yes Yes
2021KY1 O C K 2021-06-05.28531 1.000E-05 16:14:12.240 1.500E-01 0.500 F 0.167 -0.762 -07° 19' 51.60" 1.000E-01 0.500 F 0.229 -0.446 20.4 R 0.70 -0.18 o 691 1.78 Yes Yes
2021JL1 O C K 2021-06-05.34755 1.000E-05 17:00:10.680 1.500E-01 0.500 F -0.080 -0.113 -13° 53' 21.30" 1.000E-01 0.500 F 0.348 0.364 22.4 R 0.70 1.01 o 691 0.78 Yes Yes
2021JL1 O C K 2021-06-05.35685 1.000E-05 17:00:11.310 1.500E-01 0.500 F -0.080 -0.139 -13° 53' 35.60" 1.000E-01 0.500 F 0.348 0.003 22.3 R 0.70 0.91 o 691 0.28 Yes Yes
2021JL1 O C K 2021-06-05.36614 1.000E-05 17:00:11.900 1.500E-01 0.500 F -0.080 -0.774 -13° 53' 49.60" 1.000E-01 0.500 F 0.348 -0.109 o 691 1.60 Yes No
2013EU9 O C K 2021-06-05.37753 1.000E-05 21:36:55.680 1.500E-01 0.500 F -0.082 -0.455 -05° 55' 53.70" 1.000E-01 0.500 F 0.288 0.264 21.5 R 0.70 0.17 o 691 1.06 Yes Yes
2013EU9 O C K 2021-06-05.39252 1.000E-05 21:36:56.630 1.500E-01 0.500 F -0.082 0.178 -05° 55' 38.40" 1.000E-01 0.500 F 0.288 0.116 21.1 R 0.70 -0.23 o 691 0.43 Yes Yes
2013EU9 O C K 2021-06-05.40751 1.000E-05 21:36:57.520 1.500E-01 0.500 F -0.082 0.049 -05° 55' 23.00" 1.000E-01 0.500 F 0.288 0.056 21.2 R 0.70 -0.13 o 691 0.15 Yes Yes
2015WG9 O C K 2021-06-06.15628 1.000E-05 10:41:13.050 1.500E-01 0.500 F 0.177 0.673 +26° 03' 30.10" 1.000E-01 0.500 F 0.228 0.436 19.5 R 0.70 -0.23 o 691 1.63 Yes Yes
1997WS22 O C 2021-06-06.15628 1.000E-05 10:38:11.200 1.500E-01 0.500 F 0.148 -0.793 +26° 01' 13.50" 1.000E-01 0.500 F 0.263 -0.423 o 691 1.80 Yes No
2015WG9 O C K 2021-06-06.15936 1.000E-05 10:41:11.870 1.500E-01 0.500 F 0.177 0.559 +26° 04' 04.20" 1.000E-01 0.500 F 0.228 -0.091 20.7 R 0.70 0.97 o 691 1.16 Yes Yes
1997WS22 O C 2021-06-06.16039 1.000E-05 10:38:11.840 1.500E-01 0.500 F 0.148 -0.135 +26° 01' 03.40" 1.000E-01 0.500 F 0.263 0.306 o 691 0.67 Yes No
2015WG9 O C K 2021-06-06.16245 1.000E-05 10:41:10.670 1.500E-01 0.500 F 0.177 0.218 +26° 04' 39.10" 1.000E-01 0.500 F 0.228 0.081 20.0 R 0.70 0.27 o 691 0.47 Yes Yes
1997WS22 O C 2021-06-06.16451 1.000E-05 10:38:12.420 1.500E-01 0.500 F 0.148 -0.309 +26° 00' 52.20" 1.000E-01 0.500 F 0.263 -0.038 o 691 0.62 Yes No
2021CD3 O C K 2021-06-06.17117 1.000E-05 10:44:38.840 1.500E-01 0.500 F 0.122 -0.097 +20° 08' 39.90" 1.000E-01 0.500 F 0.351 1.004 o 691 2.12 Yes No
2021CD3 O C K 2021-06-06.18778 1.000E-05 10:44:42.180 1.500E-01 0.500 F 0.122 -0.321 +20° 08' 24.30" 1.000E-01 0.500 F 0.351 -0.254 o 691 0.91 Yes No
2021GY8 O C K 2021-06-06.20093 1.000E-05 14:27:02.870 1.500E-01 0.500 F 0.276 0.154 -16° 29' 17.10" 1.000E-01 0.500 F 0.114 0.181 o 691 0.49 Yes No
2021GY8 O C K 2021-06-06.21161 1.000E-05 14:27:03.840 1.500E-01 0.500 F 0.276 -0.097 -16° 29' 29.30" 1.000E-01 0.500 F 0.114 -0.414 o 691 0.87 Yes No
2021GY8 O C K 2021-06-06.22230 1.000E-05 14:27:04.810 1.500E-01 0.500 F 0.276 -0.369 -16° 29' 40.90" 1.000E-01 0.500 F 0.114 -0.432 o 691 1.16 Yes No
2021LQ O C K 2021-06-06.23445 1.000E-05 15:24:10.120 1.500E-01 0.500 F 0.104 -0.438 -23° 04' 54.80" 1.000E-01 0.500 F 0.224 0.118 20.5 R 0.70 -0.03 o 691 0.91 Yes Yes
2021LQ O C K 2021-06-06.24695 1.000E-05 15:24:11.270 1.500E-01 0.500 F 0.104 -0.261 -23° 05' 54.30" 1.000E-01 0.500 F 0.224 0.271 20.9 R 0.70 0.37 o 691 0.75 Yes Yes
2021LQ O C K 2021-06-06.25945 1.000E-05 15:24:12.380 1.500E-01 0.500 F 0.104 -0.604 -23° 06' 53.30" 1.000E-01 0.500 F 0.224 0.568 o 691 1.66 Yes No
2015WG9 O C K 2021-06-07.17928 1.000E-05 10:34:55.100 1.500E-01 0.500 F 0.156 0.817 +29° 11' 03.40" 1.000E-01 0.500 F 0.325 0.057 20.3 R 0.70 0.41 o 691 1.67 Yes Yes
2015WG9 O C K 2021-06-07.18650 1.000E-05 10:34:52.270 1.500E-01 0.500 F 0.156 -0.113 +29° 12' 19.70" 1.000E-01 0.500 F 0.325 -0.210 21.6 R 0.70 1.71 o 691 0.49 Yes Yes
2015WG9 O C K 2021-06-07.19372 1.000E-05 10:34:49.500 1.500E-01 0.500 F 0.156 -0.314 +29° 13' 36.20" 1.000E-01 0.500 F 0.325 -0.221 o 691 0.78 Yes No
2021JM6 O C K 2021-06-07.20352 1.000E-05 11:54:02.890 1.500E-01 0.500 F 0.116 -0.270 +14° 43' 00.70" 1.000E-01 0.500 F 0.272 -0.664 20.9 R 0.70 0.60 o 691 1.45 Yes Yes
2021JM6 O C K 2021-06-07.20976 1.000E-05 11:53:55.340 1.500E-01 0.500 F 0.116 -0.420 +14° 43' 49.30" 1.000E-01 0.500 F 0.272 0.307 o 691 1.15 Yes No
2021JM6 O C K 2021-06-07.21601 1.000E-05 11:53:47.830 1.500E-01 0.500 F 0.116 0.113 +14° 44' 36.70" 1.000E-01 0.500 F 0.272 0.027 o 691 0.25 Yes No
2021JG6 O C K 2021-06-07.22444 1.000E-05 13:47:52.010 1.500E-01 0.500 F 0.317 -0.216 -12° 08' 47.60" 1.000E-01 0.500 F 0.193 0.015 22.1 R 0.70 0.47 o 691 0.45 Yes Yes
2021JG6 O C K 2021-06-07.23583 1.000E-05 13:47:50.500 1.500E-01 0.500 F 0.317 -0.154 -12° 08' 46.00" 1.000E-01 0.500 F 0.193 0.017 21.1 R 0.70 -0.53 o 691 0.33 Yes Yes
2021JG6 O C K 2021-06-07.24721 1.000E-05 13:47:49.000 1.500E-01 0.500 F 0.317 -0.062 -12° 08' 44.40" 1.000E-01 0.500 F 0.193 -0.022 21.3 R 0.70 -0.33 o 691 0.14 Yes Yes
2021LC O C K 2021-06-07.26438 1.000E-05 14:55:37.380 1.500E-01 0.500 F 0.043 -0.086 +28° 57' 50.90" 1.000E-01 0.500 F 0.270 -0.383 20.6 R 0.70 0.31 o 691 0.80 Yes Yes
2021LC O C K 2021-06-07.26757 1.000E-05 14:55:39.930 1.500E-01 0.500 F 0.043 -0.053 +28° 57' 53.80" 1.000E-01 0.500 F 0.270 0.216 20.8 R 0.70 0.51 o 691 0.45 Yes Yes
2021LC O C K 2021-06-07.27076 1.000E-05 14:55:42.490 1.500E-01 0.500 F 0.043 0.094 +28° 57' 56.00" 1.000E-01 0.500 F 0.270 0.164 20.8 R 0.70 0.51 o 691 0.38 Yes Yes
2021KY2 O C K 2021-06-07.27620 1.000E-05 15:24:49.590 1.500E-01 0.500 F 0.193 0.306 +13° 58' 47.60" 1.000E-01 0.500 F 0.182 0.520 20.5 R 0.70 -0.19 o 691 1.22 Yes Yes
2021KY2 O C K 2021-06-07.28453 1.000E-05 15:24:47.770 1.500E-01 0.500 F 0.219 -0.239 +13° 57' 26.10" 1.000E-01 0.500 F 0.197 -0.136 21.2 R 0.70 0.51 o 691 0.56 Yes Yes
2021KY1 O C K 2021-06-07.29267 1.000E-05 16:06:54.200 1.500E-01 0.500 F 0.159 0.162 -07° 52' 38.70" 1.000E-01 0.500 F 0.238 -0.153 20.5 R 0.70 -0.02 o 691 0.44 Yes Yes
2021KY1 O C K 2021-06-07.29663 1.000E-05 16:06:53.190 1.500E-01 0.500 F 0.159 -0.115 -07° 52' 42.90" 1.000E-01 0.500 F 0.238 -0.193 21.2 R 0.70 0.68 o 691 0.45 Yes Yes
2021KY1 O C K 2021-06-07.30059 1.000E-05 16:06:52.200 1.500E-01 0.500 F 0.159 -0.098 -07° 52' 47.00" 1.000E-01 0.500 F 0.238 -0.137 o 691 0.34 Yes No
2021JF7 O C K 2021-06-07.30532 1.000E-05 16:34:52.710 1.500E-01 0.500 F 0.266 -0.177 -22° 53' 47.00" 1.000E-01 0.500 F 0.155 -0.251 o 691 0.64 Yes No
2021JF7 O C K 2021-06-07.32948 1.000E-05 16:34:55.210 1.500E-01 0.500 F 0.266 0.113 -22° 53' 53.80" 1.000E-01 0.500 F 0.155 0.580 o 691 1.33 Yes No
2021JL1 O C K 2021-06-07.34859 1.000E-05 17:02:58.950 1.500E-01 0.500 F 0.127 0.065 -14° 43' 21.90" 1.000E-01 0.500 F 0.310 -0.101 o 691 0.25 Yes No
2021JL1 O C K 2021-06-07.35956 1.000E-05 17:02:59.630 1.500E-01 0.500 F 0.127 -0.399 -14° 43' 38.50" 1.000E-01 0.500 F 0.310 -0.643 o 691 1.55 Yes No
2021JL1 O C K 2021-06-07.37052 1.000E-05 17:03:00.360 1.500E-01 0.500 F 0.127 -0.186 -14° 43' 54.50" 1.000E-01 0.500 F 0.310 -0.649 o 691 1.38 Yes No
2013KH6 O C K 2021-06-07.39754 1.000E-05 20:53:40.410 1.500E-01 0.500 F 0.031 0.289 +19° 16' 17.20" 1.000E-01 0.500 F 0.258 -0.545 o 691 1.35 Yes No
2013KH6 O C K 2021-06-07.40497 1.000E-05 20:53:39.570 1.500E-01 0.500 F 0.031 -0.103 +19° 17' 10.40" 1.000E-01 0.500 F 0.258 -0.358 o 691 0.79 Yes No
2021JQ24 O C 2021-06-07.42492 1.000E-05 21:01:25.490 1.500E-01 0.612 F 0.071 -0.047 -24° 48' 47.20" 1.000E-01 0.612 F 0.489 0.462 o 691 0.76 Yes No
2021JQ24 O C K 2021-06-07.42492 1.000E-05 21:01:25.480 1.500E-01 0.612 F 0.071 -0.184 -24° 48' 47.60" 1.000E-01 0.612 F 0.489 0.062 19.7 R -0.10 o 691 0.32 Yes Yes
2021JQ24 O C K 2021-06-07.43011 1.000E-05 21:01:26.020 1.500E-01 0.612 F 0.071 -0.149 -24° 48' 48.30" 1.000E-01 0.612 F 0.489 0.078 19.3 R 0.70 -0.50 o 691 0.28 Yes Yes
2021JQ24 O C 2021-06-07.43270 1.000E-05 21:01:26.270 1.500E-01 0.612 F 0.071 -0.396 -24° 48' 47.40" 1.000E-01 0.612 F 0.489 1.335 o 691 2.28 Yes No
2021JQ24 O C K 2021-06-07.43529 1.000E-05 21:01:26.560 1.500E-01 0.612 F 0.071 -0.098 -24° 48' 49.00" 1.000E-01 0.612 F 0.489 0.090 19.7 R 0.70 -0.10 o 691 0.22 Yes Yes
2021JQ24 O C 2021-06-07.43788 1.000E-05 21:01:26.780 1.500E-01 0.612 F 0.071 -0.753 -24° 48' 49.20" 1.000E-01 0.612 F 0.489 0.245 o 691 1.30 Yes No
2021HS O C K 2021-06-08.18884 1.000E-05 11:23:11.670 1.500E-01 0.500 F 0.237 0.048 -11° 14' 53.80" 1.000E-01 0.500 F 0.106 0.584 20.6 R 0.70 0.51 o 691 1.18 Yes Yes
2021HS O C K 2021-06-08.20421 1.000E-05 11:23:11.530 1.500E-01 0.500 F 0.237 1.103 -11° 14' 33.00" 1.000E-01 0.500 F 0.106 0.426 19.6 R 0.70 -0.49 o 691 2.38 Yes Yes
2021LQ O C K 2021-06-08.24007 1.000E-05 15:27:33.670 1.500E-01 0.500 F 0.173 0.174 -25° 11' 37.10" 1.000E-01 0.500 F 0.465 -0.161 21.4 R 0.70 0.31 o 691 0.48 Yes Yes
2021LQ O C K 2021-06-08.25401 1.000E-05 15:27:34.490 1.500E-01 0.500 F 0.173 -0.115 -25° 12' 18.30" 1.000E-01 0.500 F 0.465 0.372 21.4 R 0.70 0.30 o 691 0.78 Yes Yes
2021LQ O C K 2021-06-08.26796 1.000E-05 15:27:35.330 1.500E-01 0.500 F 0.173 -0.153 -25° 13' 00.00" 1.000E-01 0.500 F 0.465 0.139 o 691 0.42 Yes No
2021LP2 O C K 2021-06-09.18162 1.000E-05 11:43:58.640 1.500E-01 0.500 F 0.127 0.243 +10° 50' 13.90" 1.000E-01 0.500 F 0.368 -0.260 21.6 R 0.70 0.38 o 691 0.72 Yes Yes
2021LP2 O C K 2021-06-09.20692 1.000E-05 11:44:04.800 1.500E-01 0.500 F 0.127 0.495 +10° 51' 11.90" 1.000E-01 0.500 F 0.368 -0.526 20.7 R 0.70 -0.52 o 691 1.46 Yes Yes
2021LP2 O C K 2021-06-09.23223 1.000E-05 11:44:10.930 1.500E-01 0.500 F 0.127 -0.043 +10° 52' 10.40" 1.000E-01 0.500 F 0.368 -0.221 21.2 R 0.70 -0.02 o 691 0.46 Yes Yes
2000KW43 O C H 2021-06-09.24571 1.000E-05 15:22:59.200 1.500E-01 0.500 F 0.223 0.372 +03° 03' 43.70" 1.000E-01 0.500 F 0.069 -0.232 19.1 R 0.70 0.02 o 691 0.88 Yes Yes
2021LT3 O C K 2021-06-09.24751 1.000E-05 15:13:41.770 1.500E-01 0.500 F 0.088 -0.284 -01° 07' 08.40" 1.000E-01 0.500 F 0.215 0.208 21.2 R 0.70 -0.30 o 691 0.71 Yes Yes
2000KW43 O C H 2021-06-09.26992 1.000E-05 15:22:57.060 1.500E-01 0.500 F 0.223 -0.040 +03° 01' 27.00" 1.000E-01 0.500 F 0.069 0.265 18.9 R 0.70 -0.18 o 691 0.54 Yes Yes
2021LT3 O C K 2021-06-09.27172 1.000E-05 15:13:39.130 1.500E-01 0.500 F 0.088 0.028 -01° 06' 54.40" 1.000E-01 0.500 F 0.215 -0.296 21.4 R 0.70 -0.10 o 691 0.60 Yes Yes
2000KW43 O C H 2021-06-09.29423 1.000E-05 15:22:54.980 1.500E-01 0.500 F 0.223 0.388 +02° 59' 09.80" 1.000E-01 0.500 F 0.069 0.705 18.6 R 0.70 -0.48 o 691 1.62 Yes Yes
2021LT3 O C K 2021-06-09.29603 1.000E-05 15:13:36.510 1.500E-01 0.500 F 0.088 0.756 -01° 06' 39.30" 1.000E-01 0.500 F 0.215 0.246 20.7 R 0.70 -0.80 o 691 1.61 Yes Yes
2021LH3 O C K 2021-06-09.31863 1.000E-05 15:41:23.760 1.500E-01 0.500 F 0.102 -0.134 -03° 17' 48.90" 1.000E-01 0.500 F 0.220 0.146 20.8 R 0.70 -0.80 o 691 0.40 Yes Yes
2021LR2 O C K 2021-06-09.33362 1.000E-05 15:56:22.700 1.500E-01 0.500 F 0.076 0.024 +02° 14' 32.10" 1.000E-01 0.500 F 0.160 -0.104 21.7 R 0.70 0.31 o 691 0.21 Yes Yes
2021LH3 O C K 2021-06-09.34307 1.000E-05 15:41:22.470 1.500E-01 0.500 F 0.102 0.277 -03° 19' 06.10" 1.000E-01 0.500 F 0.220 0.196 21.8 R 0.70 0.20 o 691 0.68 Yes Yes
2021LH3 O C K 2021-06-09.36552 1.000E-05 15:41:21.330 1.500E-01 0.500 F 0.102 0.620 -03° 20' 17.20" 1.000E-01 0.500 F 0.220 0.041 21.7 R 0.70 0.10 o 691 1.25 Yes Yes
2021LR2 O C K 2021-06-09.37850 1.000E-05 15:56:19.470 1.500E-01 0.500 F 0.076 0.735 +02° 16' 27.60" 1.000E-01 0.500 F 0.160 0.028 21.3 R 0.70 -0.10 o 691 1.52 Yes Yes
2014KV76 O C H 2021-06-10.17480 1.000E-05 11:42:11.580 1.500E-01 0.500 F 0.064 -0.714 +19° 58' 52.50" 1.000E-01 0.500 F 0.332 0.317 20.8 R 0.70 0.64 o 691 1.58 Yes Yes
2014KV76 O C H 2021-06-10.19077 1.000E-05 11:42:10.570 1.500E-01 0.500 F 0.064 -0.298 +19° 59' 30.80" 1.000E-01 0.500 F 0.332 -0.164 20.9 R 0.70 0.74 o 691 0.69 Yes Yes
2014KV76 O C H 2021-06-10.20675 1.000E-05 11:42:09.560 1.500E-01 0.500 F 0.064 -0.110 +20° 00' 09.80" 1.000E-01 0.500 F 0.332 0.143 20.2 R 0.70 0.04 o 691 0.37 Yes Yes
2021LT3 O C K 2021-06-10.21456 1.000E-05 15:11:58.630 1.500E-01 0.500 F 0.095 -0.588 -00° 57' 36.00" 1.000E-01 0.500 F 0.260 -0.009 21.4 R 0.70 -0.11 o 691 1.19 Yes Yes
2000KW43 O C 2021-06-10.23072 1.000E-05 15:21:46.560 1.500E-01 0.559 F 0.158 -0.799 +01° 32' 43.40" 1.000E-01 0.559 F 0.193 0.884 20.2 V 0.70 0.66 o 691 2.14 Yes Yes
2000KW43 O C K 2021-06-10.23072 1.000E-05 15:21:46.610 1.500E-01 0.559 F 0.158 -0.049 +01° 32' 42.80" 1.000E-01 0.559 F 0.193 0.284 19.2 R 0.70 0.06 o 691 0.52 Yes Yes
2021LT3 O C K 2021-06-10.23609 1.000E-05 15:11:56.320 1.500E-01 0.500 F 0.095 -0.006 -00° 57' 23.50" 1.000E-01 0.500 F 0.260 -0.104 21.8 R 0.70 0.29 o 691 0.21 Yes Yes
2000KW43 O C K 2021-06-10.25225 1.000E-05 15:21:44.890 1.500E-01 0.559 F 0.158 0.127 +01° 30' 46.10" 1.000E-01 0.559 F 0.193 0.249 18.9 R 0.70 -0.24 o 691 0.50 Yes Yes
2000KW43 O C 2021-06-10.25225 1.000E-05 15:21:44.860 1.500E-01 0.559 F 0.158 -0.323 +01° 30' 45.70" 1.000E-01 0.559 F 0.193 -0.151 19.6 V 0.70 0.06 o 691 0.64 Yes Yes
2000KW43 O C 2021-06-10.25597 1.000E-05 15:21:44.590 1.500E-01 0.559 F 0.158 0.106 +01° 30' 25.70" 1.000E-01 0.559 F 0.193 -0.004 19.5 V 0.70 -0.04 o 691 0.19 Yes Yes
2021LT3 O C K 2021-06-10.25762 1.000E-05 15:11:53.890 1.500E-01 0.500 F 0.095 -1.239 -00° 57' 11.10" 1.000E-01 0.500 F 0.260 -0.294 21.2 R 0.70 -0.31 o 691 2.58 Yes Yes
2021LX3 O C K 2021-06-10.27937 1.000E-05 15:52:07.800 1.500E-01 0.500 F 0.129 -0.147 -19° 05' 41.70" 1.000E-01 0.500 F 0.090 1.465 19.3 R 0.70 -0.64 o 691 2.97 Yes Yes
2021LX3 O C K 2021-06-10.28974 1.000E-05 15:52:06.080 1.500E-01 0.500 F 0.129 -0.903 -19° 05' 15.20" 1.000E-01 0.500 F 0.090 0.193 o 691 1.87 Yes No
2021LX3 O C K 2021-06-10.30011 1.000E-05 15:52:04.480 1.500E-01 0.500 F 0.129 0.002 -19° 04' 47.40" 1.000E-01 0.500 F 0.090 0.175 20.1 R 0.70 0.16 o 691 0.35 Yes Yes
2014WC7 O C K 2021-06-11.18702 1.000E-05 11:09:20.530 1.500E-01 0.500 F 0.193 -0.529 +18° 42' 32.90" 1.000E-01 0.500 F 0.288 -0.221 21.7 R 0.70 0.74 o 691 1.22 Yes Yes
2014WC7 O C K 2021-06-11.21642 1.000E-05 11:09:21.910 1.500E-01 0.500 F 0.193 0.007 +18° 41' 07.90" 1.000E-01 0.500 F 0.288 -0.425 21.8 R 0.70 0.84 o 691 0.97 Yes Yes
2019HH4 O C K 2021-06-11.25684 1.000E-05 14:17:14.360 1.500E-01 0.500 F 0.138 -0.145 +19° 33' 50.60" 1.000E-01 0.500 F 0.241 -0.481 o 691 1.03 Yes No
2019HH4 O C K 2021-06-11.27454 1.000E-05 14:17:13.370 1.500E-01 0.500 F 0.138 -0.345 +19° 34' 06.60" 1.000E-01 0.500 F 0.241 -0.258 o 691 0.88 Yes No
2019HH4 O C K 2021-06-11.29216 1.000E-05 14:17:12.420 1.500E-01 0.500 F 0.138 -0.111 +19° 34' 22.40" 1.000E-01 0.500 F 0.241 -0.121 22.1 R 0.70 0.38 o 691 0.34 Yes Yes
2015WG9 O C K 2021-06-12.19561 1.000E-05 10:02:48.060 1.500E-01 0.500 F 0.107 4.001 +41° 54' 24.80" 1.000E-01 0.500 F 0.370 -6.867 22.2 R 0.70 1.52 o 691 15.24 No Yes
2015WG9 O C K 2021-06-12.20324 1.000E-05 10:02:44.670 1.500E-01 0.500 F 0.107 0.644 +41° 55' 28.80" 1.000E-01 0.500 F 0.370 0.035 21.7 R 0.70 1.02 o 691 1.32 Yes Yes
2014QZ432 O C K 2021-06-12.27049 1.000E-05 15:14:40.170 1.500E-01 0.500 F 0.164 -0.395 -12° 36' 17.40" 1.000E-01 0.500 F 0.191 0.582 18.4 R 0.70 -0.62 o 691 1.41 Yes Yes
2014QZ432 O C K 2021-06-12.28174 1.000E-05 15:14:40.140 1.500E-01 0.500 F 0.164 -0.271 -12° 36' 15.30" 1.000E-01 0.500 F 0.191 0.530 18.0 R 0.70 -1.02 o 691 1.19 Yes Yes
2014QZ432 O C K 2021-06-12.28924 1.000E-05 15:14:40.120 1.500E-01 0.500 F 0.164 -0.210 -12° 36' 14.60" 1.000E-01 0.500 F 0.191 -0.214 18.0 R 0.70 -1.02 o 691 0.60 Yes Yes
2020UG7 O C K 2021-06-13.16563 1.000E-05 11:22:09.560 1.500E-01 0.500 F 0.269 0.103 +12° 34' 33.70" 1.000E-01 0.500 F 0.324 -0.286 22.0 R 0.70 0.73 o 691 0.71 Yes Yes
2020UG7 O C K 2021-06-13.19014 1.000E-05 11:22:14.540 1.500E-01 0.500 F 0.269 0.537 +12° 33' 29.70" 1.000E-01 0.500 F 0.324 0.147 21.4 R 0.70 0.13 o 691 1.19 Yes Yes
2020UG7 O C K 2021-06-13.21474 1.000E-05 11:22:19.430 1.500E-01 0.500 F 0.269 -0.742 +12° 32' 24.80" 1.000E-01 0.500 F 0.324 -0.067 21.7 R 0.70 0.43 o 691 1.60 Yes Yes
2021LD O C K 2021-06-13.24199 1.000E-05 15:18:07.670 1.500E-01 0.500 F 0.268 -0.373 +17° 42' 48.10" 1.000E-01 0.500 F 0.182 -0.124 20.8 R 0.70 -0.32 o 691 0.79 Yes Yes
2021LD O C K 2021-06-13.25391 1.000E-05 15:18:05.160 1.500E-01 0.500 F 0.268 -0.111 +17° 43' 28.40" 1.000E-01 0.500 F 0.182 -0.004 20.8 R 0.70 -0.32 o 691 0.22 Yes Yes
2021LD O C K 2021-06-13.26584 1.000E-05 15:18:02.610 1.500E-01 0.500 F 0.268 -0.409 +17° 44' 08.20" 1.000E-01 0.500 F 0.182 -0.373 20.9 R 0.70 -0.22 o 691 1.12 Yes Yes
2021FQ3 O C K 2021-06-13.36101 1.000E-05 17:25:09.150 1.500E-01 0.500 F 0.111 -0.234 +15° 47' 50.90" 1.000E-01 0.500 F 0.202 -0.088 o 691 0.50 Yes No
2021FQ3 O C K 2021-06-13.37732 1.000E-05 17:25:08.910 1.500E-01 0.500 F 0.111 -0.120 +15° 46' 46.20" 1.000E-01 0.500 F 0.202 0.113 20.2 R 0.70 -0.07 o 691 0.33 Yes Yes
2021FQ3 O C K 2021-06-13.39363 1.000E-05 17:25:08.680 1.500E-01 0.500 F 0.111 0.004 +15° 45' 41.00" 1.000E-01 0.500 F 0.202 -0.100 20.2 R 0.70 -0.07 o 691 0.20 Yes Yes
2016YN O C K 2021-06-13.42688 1.000E-05 18:07:21.690 1.500E-01 0.500 F -0.036 -0.024 -03° 59' 04.70" 1.000E-01 0.500 F 0.436 -0.142 o 691 0.31 Yes No
2016YN O C K 2021-06-13.44336 1.000E-05 18:07:20.050 1.500E-01 0.500 F -0.036 -0.031 -03° 58' 50.00" 1.000E-01 0.500 F 0.436 0.403 22.8 R 0.70 1.48 o 691 0.83 Yes Yes
2016YN O C K 2021-06-13.45966 1.000E-05 18:07:18.470 1.500E-01 0.500 F -0.036 0.559 -03° 58' 36.20" 1.000E-01 0.500 F 0.436 0.204 o 691 1.34 Yes No
2021KU2 O C K 2021-06-14.20186 1.000E-05 12:58:46.470 1.500E-01 0.500 F 0.148 0.002 +20° 17' 21.70" 1.000E-01 0.500 F 0.228 0.303 21.1 R 0.70 -0.22 o 691 0.62 Yes Yes
2021KU2 O C K 2021-06-14.21896 1.000E-05 12:58:41.860 1.500E-01 0.500 F 0.148 -0.141 +20° 15' 37.70" 1.000E-01 0.500 F 0.228 -0.198 21.4 R 0.70 0.08 o 691 0.50 Yes Yes
2021KU2 O C K 2021-06-14.23608 1.000E-05 12:58:37.280 1.500E-01 0.500 F 0.148 -0.077 +20° 13' 54.40" 1.000E-01 0.500 F 0.228 0.310 o 691 0.65 Yes No
2016BZ14 O C K 2021-06-14.42365 1.000E-05 20:05:35.280 1.500E-01 0.500 F 0.102 -0.727 +09° 22' 01.60" 1.000E-01 0.500 F 0.268 0.231 20.8 R 0.70 -0.52 o 691 1.55 Yes Yes
2016BZ14 O C K 2021-06-14.42911 1.000E-05 20:05:34.960 1.500E-01 0.500 F 0.102 0.184 +09° 21' 59.20" 1.000E-01 0.500 F 0.268 0.707 20.5 R 0.70 -0.82 o 691 1.47 Yes Yes
2016BZ14 O C K 2021-06-14.43456 1.000E-05 20:05:34.580 1.500E-01 0.500 F 0.102 0.197 +09° 21' 55.60" 1.000E-01 0.500 F 0.268 -0.021 o 691 0.39 Yes No
2021LN15 O C K 2021-06-14.44264 1.000E-05 21:23:59.960 1.500E-01 0.500 F -0.062 1.160 -27° 20' 33.90" 1.000E-01 0.500 F 0.575 1.126 20.8 R 0.70 -0.61 o 691 3.22 No Yes
2021LN15 O C K 2021-06-14.44838 1.000E-05 21:24:00.460 1.500E-01 0.500 F -0.062 0.142 -27° 20' 32.40" 1.000E-01 0.500 F 0.575 0.206 21.2 R 0.70 -0.21 o 691 0.50 Yes Yes
2021LN15 O C K 2021-06-14.45412 1.000E-05 21:24:01.020 1.500E-01 0.500 F -0.062 -0.074 -27° 20' 30.30" 1.000E-01 0.500 F 0.575 -0.122 21.4 R 0.70 -0.01 o 691 0.29 Yes Yes
2021LW1 O C K 2021-06-17.38444 1.000E-05 15:56:17.830 1.500E-01 0.500 F 0.185 0.459 +04° 02' 07.10" 1.000E-01 0.500 F 0.143 0.192 21.6 R 0.70 0.80 o 691 1.03 Yes Yes
2021LW1 O C K 2021-06-17.39549 1.000E-05 15:56:19.030 1.500E-01 0.500 F 0.185 -0.695 +04° 02' 55.70" 1.000E-01 0.500 F 0.143 0.658 20.9 R 0.70 0.10 o 691 1.98 Yes Yes
2021LS5 O C K 2021-06-17.40150 1.000E-05 16:17:39.830 1.500E-01 0.500 F 0.198 0.615 -01° 01' 49.80" 1.000E-01 0.500 F 0.281 0.526 19.5 R 0.70 -0.08 o 691 1.73 Yes Yes
2021LS5 O C K 2021-06-17.41255 1.000E-05 16:17:49.970 1.500E-01 0.500 F 0.213 0.091 -00° 59' 39.10" 1.000E-01 0.500 F 0.295 0.859 19.9 R 0.70 0.32 o 691 1.82 Yes Yes
2021LD O C K 2021-06-18.28869 1.000E-05 14:58:58.370 1.500E-01 0.500 F 0.167 -0.222 +22° 59' 14.30" 1.000E-01 0.500 F 0.232 0.185 20.7 R 0.70 -0.29 o 691 0.60 Yes Yes

[1-200] [201-400] [401-600] [601-800] [801-1000] [1001-1200] [1201-1400] [1401-1600] [1601-1800] [1801-2000] [2001-2200] [2201-2400] [2401-2600] [2601-2800] [2801-3000] [3001-3200] [3201-3400] [3401-3600] [3601-3800] [3801-4000] [4001-4200] [4201-4400] [4401-4600] [4601-4800] [4801-5000] [5001-5200] [5201-5400] [5401-5600] [5601-5800] [5801-6000] [6001-6200] [6201-6400] [6401-6600] [6601-6800] [6801-7000] [7001-7200] [7201-7400] [7401-7600] [7601-7800] [7801-8000] [8001-8200] [8201-8400] [8401-8600] [8601-8800] [8801-9000] [9001-9200] [9201-9400] [9401-9600] [9601-9800] [9801-10000] [10001-10200] [10201-10400] [10401-10600] [10601-10800] [10801-11000] [11001-11200] [11201-11400] [11401-11600] [11601-11800] [11801-12000] [12001-12200] [12201-12400] [12401-12600] [12601-12800] [12801-13000] [13001-13200] [13201-13400] [13401-13600] [13601-13800] [13801-14000] [14001-14200] [14201-14400] [14401-14600] [14601-14800] [14801-15000] [15001-15200] [15201-15400] [15401-15600] [15601-15800] [15801-16000] [16001-16200] [16201-16400] [16401-16600] [16601-16800] [16801-17000] [17001-17200] [17201-17400] [17401-17600] [17601-17800] [17801-18000] [18001-18200] [18201-18400] [18401-18600] [18601-18800] [18801-19000] [19001-19200] [19201-19400] [19401-19600] [19601-19800] [19801-20000] [20001-20200] [20201-20400] [20401-20600] [20601-20800] [20801-21000] [21001-21200] [21201-21400] [21401-21600] [21601-21800] [21801-22000] [22001-22200] [22201-22400] [22401-22600] [22601-22800] [22801-23000] [23001-23200] [23201-23400] [23401-23600] [23601-23800] [23801-24000] [24001-24200] [24201-24400] [24401-24600] [24601-24800] [24801-25000] [25001-25200] [25201-25400] [25401-25600] [25601-25800] [25801-26000] [26001-26200] [26201-26400] [26401-26600] [26601-26800] [26801-27000] [27001-27200] [27201-27400] [27401-27600] [27601-27800] [27801-28000] [28001-28200] [28201-28400] [28401-28600] [28601-28800] [28801-29000] [29001-29200] [29201-29400] [29401-29600] [29601-29800] [29801-30000] [30001-30200] [30201-30400] [30401-30600] [30601-30800] [30801-31000] [31001-31200] [31201-31400] [31401-31600] [31601-31800] [31801-32000] [32001-32200] [32201-32400] [32401-32600] [32601-32800] [32801-33000] [33001-33200] [33201-33400] [33401-33600] [33601-33800] [33801-34000] [34001-34200] [34201-34400] [34401-34600] [34601-34800] [34801-35000] [35001-35200] [35201-35400] [35401-35600] [35601-35800] [35801-36000] [36001-36200] [36201-36400] [36401-36600] [36601-36800] [36801-37000] [37001-37200] [37201-37400] [37401-37600] [37601-37800] [37801-38000] [38001-38200] [38201-38400] [38401-38600] [38601-38800] [38801-39000] [39001-39200] [39201-39400] [39401-39600] [39601-39800] [39801-40000] [40001-40200] [40201-40400] [40401-40600] [40601-40800] [40801-41000] [41001-41200] [41201-41400] [41401-41600] [41601-41800] [41801-42000] [42001-42200] [42201-42400] [42401-42600] [42601-42800] [42801-43000] [43001-43200] [43201-43400] [43401-43600] [43601-43800] [43801-44000] [44001-44200] [44201-44400] [44401-44600] [44601-44800] [44801-45000] [45001-45200] [45201-45400] [45401-45600] [45601-45800] [45801-46000] [46001-46200] [46201-46400] [46401-46600] [46601-46800] [46801-47000] [47001-47200] [47201-47400] [47401-47600] [47601-47800] [47801-48000] [48001-48200] [48201-48400] [48401-48600] [48601-48800] [48801-49000] [49001-49200] [49201-49400] [49401-49600] [49601-49800] [49801-50000] [50001-50200] [50201-50388]